Flag for U.S.A. Weather past 2 weeks in Scranton, Pennsylvania, U.S.A.

Now
65 °F

Light rain. More clouds than sun.


Feels Like: 65 °F
Forecast: 62 / 72 °F
Wind: No wind

Location: Barre - Scranton - Wilkes-Barre / Scranton International Airport

Current Time: Aug 23, 2014 at 11:51:17 AM

Latest Report: Aug 23, 2014 at 10:54 AM


Visibility: 9 mi

Pressure: 30.08 "Hg

Humidity: 81%

Dew point: 59 °F

Location of ScrantonLocation

Historic Weather in Scranton — Graph

°F

Scranton temperature yesterday

Maximum temperature yesterday: 74 °F (at 11:54 AM)
Minimum temperature yesterday: 66 °F (at 11:54 PM)
Average temperature yesterday: 70 °F

Past Weeks' High & Low Weather Summary

 TemperatureHumidityPressure
High87 °F (Aug 10, 4:54 PM)94% (Aug 12, 7:57 AM)30.17 "Hg (Aug 12, 7:57 AM)
Low50 °F (Aug 16, 4:54 AM)30% (Aug 9, 4:54 PM)29.70 "Hg (Aug 13, 1:54 PM)
Average69 °F66%29.96 "Hg
* Reported Aug 8 10:54 AM — Aug 23 10:54 AM, Scranton, Weather by CustomWeather, © 2014

Note: Actual official high and low records may vary slightly from our data, if they occured in-between our weather recording intervals... More about our weather records

Advertising

Scranton weather history for previous 24 hours

 ConditionsComfort  
Time TempWeatherWind HumidityBarometerVisibility
10:54 AM
Aug 23
65 °FLight rain. More clouds than sun.No wind81%30.08 "Hg9 mi
9:54 AM64 °FLight rain. Overcast.No wind81%30.08 "Hg10 mi
8:54 AM63 °FLight rain. Overcast.No wind84%30.08 "Hg10 mi
8:01 AM63 °FRain. Fog.No wind88%30.10 "Hg2 mi
7:54 AM63 °FLight rain. Fog.No wind87%30.08 "Hg3 mi
6:54 AM63 °FLight rain. Fog.No wind87%30.06 "Hg3 mi
5:54 AM64 °FLight rain. Overcast.No wind84%30.04 "Hg7 mi
4:54 AM66 °FLight rain. Overcast.No wind78%30.03 "Hg10 mi
3:54 AM66 °FLight rain. Overcast.3 mph78%30.02 "Hg10 mi
2:54 AM66 °FOvercast.No wind78%30.01 "Hg10 mi
1:54 AM66 °FOvercast.3 mph78%30.03 "Hg10 mi
12:54 AM67 °FOvercast.No wind76%30.03 "Hg10 mi
11:54 PM
Aug 22
66 °FMostly cloudy.3 mph81%30.03 "Hg10 mi
10:54 PM68 °FLight rain. Overcast.No wind84%30.02 "Hg6 mi
9:54 PM69 °FOvercast.8 mph79%30.01 "Hg10 mi
8:54 PM70 °FMostly cloudy.10 mph79%30.01 "Hg10 mi
7:54 PM70 °FMostly cloudy.8 mph81%29.99 "Hg10 mi
6:54 PM72 °FOvercast.5 mph76%29.99 "Hg10 mi
5:54 PM73 °FMostly cloudy.5 mph76%29.98 "Hg10 mi
4:54 PM73 °FPassing clouds.3 mph79%29.98 "Hg10 mi
3:54 PM72 °FPartly sunny.6 mph84%29.97 "Hg10 mi
3:02 PM70 °FRain. Fog.5 mph88%30.01 "Hg3 mi
2:52 PM70 °FHeavy rain. Cloudy.6 mph84%29.99 "Hg2 mi
1:54 PM73 °FOvercast.6 mph76%29.99 "Hg10 mi
12:54 PM74 °FPartly sunny.6 mph74%30.00 "Hg10 mi
11:54 AM74 °FOvercast.3 mph71%30.01 "Hg10 mi
Weather by CustomWeather, © 2014

See weather overviewHow to use our weather pages